TimeCDT,TemperatureF,Dew PointF,Humidity,Sea Level PressureIn,VisibilityMPH,Wind Direction,Wind SpeedMPH,Gust SpeedMPH,PrecipitationIn,Events,Conditions,WindDirDegrees,DateUTC
12:55 AM,28.9,24.1,82,30.35,10.0,Calm,Calm,-,N/A,,Clear,0,2012-10-29 05:55:00
1:55 AM,27.0,25.0,92,30.35,10.0,Calm,Calm,-,N/A,,Clear,0,2012-10-29 06:55:00
2:55 AM,26.1,24.1,92,30.35,10.0,Calm,Calm,-,N/A,,Clear,0,2012-10-29 07:55:00
3:55 AM,30.0,24.1,79,30.34,10.0,NNE,3.5,-,N/A,,Clear,30,2012-10-29 08:55:00
4:55 AM,26.1,24.1,92,30.36,10.0,Calm,Calm,-,N/A,,Clear,0,2012-10-29 09:55:00
5:55 AM,27.0,24.1,89,30.35,10.0,Calm,Calm,-,N/A,,Clear,0,2012-10-29 10:55:00
6:55 AM,28.9,26.1,89,30.36,10.0,Calm,Calm,-,N/A,,Clear,0,2012-10-29 11:55:00
7:55 AM,32.0,28.0,85,30.38,10.0,Calm,Calm,-,N/A,,Mostly Cloudy,0,2012-10-29 12:55:00
8:55 AM,34.0,28.9,82,30.38,10.0,East,4.6,-,N/A,,Overcast,90,2012-10-29 13:55:00
9:55 AM,37.0,30.9,79,30.39,10.0,SE,3.5,-,N/A,,Overcast,130,2012-10-29 14:55:00
10:55 AM,41.0,33.1,73,30.39,10.0,SE,3.5,-,N/A,,Overcast,130,2012-10-29 15:55:00
11:55 AM,43.0,30.9,62,30.38,10.0,SSE,4.6,-,N/A,,Scattered Clouds,150,2012-10-29 16:55:00
12:55 PM,45.0,30.0,56,30.36,10.0,South,6.9,-,N/A,,Mostly Cloudy,180,2012-10-29 17:55:00
1:55 PM,46.0,28.9,51,30.32,10.0,SE,5.8,-,N/A,,Overcast,130,2012-10-29 18:55:00
2:55 PM,46.0,30.0,54,30.30,10.0,Calm,Calm,-,N/A,,Mostly Cloudy,0,2012-10-29 19:55:00
3:55 PM,46.0,30.9,56,30.27,10.0,East,4.6,-,N/A,,Overcast,90,2012-10-29 20:55:00
4:55 PM,46.0,30.9,56,30.26,10.0,East,4.6,-,N/A,,Overcast,100,2012-10-29 21:55:00
5:55 PM,43.0,30.0,60,30.25,10.0,East,3.5,-,N/A,,Mostly Cloudy,80,2012-10-29 22:55:00
6:55 PM,41.0,30.0,65,30.24,10.0,East,3.5,-,N/A,,Clear,90,2012-10-29 23:55:00
7:55 PM,34.0,28.9,82,30.25,10.0,Calm,Calm,-,N/A,,Clear,0,2012-10-30 00:55:00
8:55 PM,30.9,28.0,89,30.24,10.0,Calm,Calm,-,N/A,,Scattered Clouds,0,2012-10-30 01:55:00
9:55 PM,30.9,28.9,92,30.24,10.0,WNW,3.5,-,N/A,,Clear,290,2012-10-30 02:55:00
10:55 PM,28.9,27.0,92,30.22,10.0,NW,3.5,-,N/A,,Clear,320,2012-10-30 03:55:00
11:55 PM,30.9,28.0,89,30.21,10.0,North,4.6,-,N/A,,Clear,10,2012-10-30 04:55:00